This is the latest recevied weather packets stored in our database for station/object SP8EBC-11. If no packets are shown the sender has not sent any weather packets the latest 1 day(s).
| Time | Temp. | Humidity | Pressure | Rain* | Wind** | Luminosity | Snow |
|---|---|---|---|---|---|---|---|
| 1777991512 | 20° C | 62% | 991.1 hPa | - | 3.58 m/s, 46° | - | - |
| 1777991392 | 20° C | 62% | 991.1 hPa | - | 4.02 m/s, 46° | - | - |
| 1777991272 | 20° C | 62% | 991 hPa | - | 4.02 m/s, 55° | - | - |
| 1777991152 | 20° C | 62% | 991 hPa | - | 4.47 m/s, 55° | - | - |
| 1777991032 | 20° C | 62% | 991 hPa | - | 4.47 m/s, 55° | - | - |
| 1777990912 | 20° C | 62% | 991 hPa | - | 3.13 m/s, 57° | - | - |
| 1777990792 | 20° C | 61% | 991.1 hPa | - | 3.58 m/s, 57° | - | - |
| 1777990672 | 20° C | 61% | 991.1 hPa | - | 3.58 m/s, 61° | - | - |
| 1777990552 | 20° C | 61% | 991.1 hPa | - | 2.68 m/s, 67° | - | - |
| 1777990432 | 20° C | 62% | 991.2 hPa | - | 3.13 m/s, 52° | - | - |
| 1777990312 | 20° C | 61% | 991.3 hPa | - | 3.58 m/s, 45° | - | - |
| 1777990192 | 20° C | 62% | 991.4 hPa | - | 3.58 m/s, 41° | - | - |
| 1777990071 | 20° C | 61% | 991.5 hPa | - | 4.02 m/s, 43° | - | - |
| 1777989951 | 20° C | 61% | 991.5 hPa | - | 4.02 m/s, 32° | - | - |
| 1777989831 | 20.56° C | 61% | 991.5 hPa | - | 4.02 m/s, 27° | - | - |
| 1777989711 | 20.56° C | 61% | 991.5 hPa | - | 4.47 m/s, 30° | - | - |
| 1777989591 | 20.56° C | 61% | 991.5 hPa | - | 4.47 m/s, 32° | - | - |
| 1777989471 | 20.56° C | 61% | 991.5 hPa | - | 3.58 m/s, 41° | - | - |
| 1777989351 | 20.56° C | 61% | 991.5 hPa | - | 3.58 m/s, 42° | - | - |
| 1777989231 | 20.56° C | 61% | 991.6 hPa | - | 4.02 m/s, 38° | - | - |
| 1777989111 | 20.56° C | 61% | 991.6 hPa | - | 3.58 m/s, 34° | - | - |
| 1777988991 | 20.56° C | 61% | 991.7 hPa | - | 3.58 m/s, 39° | - | - |
| 1777988871 | 20.56° C | 61% | 991.7 hPa | - | 3.58 m/s, 24° | - | - |
| 1777988751 | 20.56° C | 61% | 991.8 hPa | - | 3.58 m/s, 20° | - | - |
| 1777988631 | 20.56° C | 61% | 991.8 hPa | - | 4.47 m/s, 27° | - | - |
* Rain since midnight (hover to see other rain measurements)
** Current wind speed in m/s (hover to see current wind gust speed)